Iron Mountain, MI

2:52 AM CDT on July 23, 2017 (GMT -0500)
Ford

Weather History for KIMT - May, 2013

Change the Weather History Date:

Sunday, May 26, 2013

  Actual Average Record
Temperature  
Mean Temperature 50 °F -  
Max Temperature 66 °F 69 °F 90 °F (1978)
Min Temperature 35 °F 44 °F 27 °F (1954)
Degree Days  
Heating Degree Days 14    
Moisture  
Dew Point 31 °F    
Average Humidity 52    
Maximum Humidity 93    
Minimum Humidity 23    
Precipitation  
Precipitation 0.00 in - - ()
Sea Level Pressure  
Sea Level Pressure 30.30 in    
Wind  
Wind Speed 3 mph (SE)    
Max Wind Speed 13 mph    
Max Gust Speed 16 mph    
Visibility 10 miles    
Events      
Averages and records for this station are not official NWS values.
T = Trace of Precipitation, MM = Missing Value Source: NWS Daily Summary

Daily Weather History Graph

Daily Weather History Graph

Search for Another Location

Airport or City:

Trip Planner

Search our weather history database for the weather conditions in past years. The results will help you decide how hot, cold, wet, or windy it might be!

Date:

Astronomy

May. 26, 2013 Rise Set
Actual Time 5:09 AM CDT 8:29 PM CDT
Civil Twilight 4:33 AM CDT 9:06 PM CDT
Nautical Twilight 3:45 AM CDT 9:54 PM CDT
Astronomical Twilight 2:45 AM CDT 10:54 PM CDT
Moon 10:15 PM CDT (5/26) 6:39 AM CDT (5/26)
Length of Visible Light 16h 33m
Length of Day
15h 19m
Waning Gibbous, 96% of the Moon is Illuminated
May 26
Waning Gibbous
May 31
Last Quarter
Jun 8
New
Jun 16
First Quarter
Jun 23
Full

Hourly Weather History & Observations

Time (CDT) Temp. Windchill Dew Point Humidity Pressure Visibility Wind Dir Wind Speed Gust Speed Precip Events Conditions
12:54 AM 41.0 °F - 34.0 °F 76% 30.35 in 10.0 mi Calm Calm - N/A   Clear
1:54 AM 37.0 °F - 34.0 °F 89% 30.36 in 10.0 mi Calm Calm - N/A   Clear
2:54 AM 37.0 °F - 34.0 °F 89% 30.34 in 10.0 mi Calm Calm - N/A   Clear
3:54 AM 36.0 °F - 34.0 °F 93% 30.34 in 10.0 mi Calm Calm - N/A   Clear
4:54 AM 35.1 °F - 33.1 °F 92% 30.35 in 10.0 mi Calm Calm - N/A   Clear
5:54 AM 35.1 °F - 33.1 °F 92% 30.35 in 10.0 mi Calm Calm - N/A   Clear
6:54 AM 43.0 °F 41.3 °F 37.0 °F 80% 30.38 in 10.0 mi NW 3.5 mph - N/A   Clear
7:54 AM 51.1 °F - 37.9 °F 61% 30.37 in 10.0 mi Calm Calm - N/A   Clear
8:54 AM 57.0 °F - 35.1 °F 44% 30.35 in 10.0 mi Variable 3.5 mph - N/A   Clear
9:54 AM 60.1 °F - 30.9 °F 33% 30.35 in 10.0 mi East 6.9 mph - N/A   Clear
10:54 AM 62.1 °F - 28.9 °F 29% 30.35 in 10.0 mi ESE 5.8 mph - N/A   Clear
11:54 AM 64.0 °F - 27.0 °F 25% 30.33 in 10.0 mi SE 9.2 mph - N/A   Clear
12:54 PM 66.0 °F - 28.9 °F 25% 30.32 in 10.0 mi ESE 9.2 mph - N/A   Clear
1:54 PM 66.0 °F - 30.0 °F 26% 30.29 in 10.0 mi SE 11.5 mph 16.1 mph N/A   Clear
2:54 PM 66.0 °F - 28.0 °F 24% 30.28 in 10.0 mi SSE 10.4 mph - N/A   Clear
3:54 PM 66.9 °F - 28.0 °F 23% 30.27 in 10.0 mi East 9.2 mph - N/A   Clear
4:54 PM 66.0 °F - 28.0 °F 24% 30.26 in 10.0 mi SE 10.4 mph - N/A   Clear
5:54 PM 63.0 °F - 27.0 °F 26% 30.25 in 10.0 mi SSE 12.7 mph - N/A   Clear
6:54 PM 62.1 °F - 27.0 °F 26% 30.23 in 10.0 mi SE 11.5 mph - N/A   Clear
7:54 PM 59.0 °F - 28.0 °F 31% 30.23 in 10.0 mi SE 6.9 mph - N/A   Clear
8:54 PM 52.0 °F - 30.0 °F 43% 30.24 in 10.0 mi SE 4.6 mph - N/A   Clear
9:54 PM 46.9 °F - 30.9 °F 54% 30.25 in 10.0 mi Calm Calm - N/A   Clear
10:54 PM 42.1 °F - 32.0 °F 67% 30.24 in 10.0 mi Calm Calm - N/A   Clear
11:54 PM 41.0 °F - 33.1 °F 73% 30.23 in 10.0 mi Calm Calm - N/A   Clear